Overview Statistics Trail Chart Weather Telemetry Raw packets
 

This is the latest recevied weather packets stored in our database for station/object OE6ATD-13. If no packets are shown the sender has not sent any weather packets the latest 10 day(s).

<< 13 14 15 16 17 18 19 >>
Time Temp. Humidity Pressure Rain* Wind** Luminosity Snow
1788490827 17.22° C 86% 1020.1 hPa 0 mm - 0 W/m² -
1788490226 17.78° C 85% 1020.1 hPa 0 mm - 0 W/m² -
1788489623 17.78° C 84% 1020.2 hPa 0 mm - 0 W/m² -
1788489018 17.78° C 83% 1020.3 hPa 0 mm - 0 W/m² -
1788488429 18.33° C 82% 1020.2 hPa 0 mm - 0 W/m² -
1788487824 18.33° C 82% 1020.3 hPa 0 mm - 0 W/m² -
1788487220 18.33° C 83% 1020.4 hPa 0 mm - 0 W/m² -
1788486616 18.33° C 84% 1020.4 hPa 0 mm - 0 W/m² -
1788486027 18.33° C 83% 1020.3 hPa 0 mm - 0 W/m² -
1788485423 18.33° C 83% 1020.5 hPa 0 mm - 0 W/m² -
1788484819 18.33° C 80% 1020.4 hPa 0 mm - 0 W/m² -
1788484222 18.89° C 79% 1020.3 hPa 0 mm - 0 W/m² -
1788483619 18.33° C 79% 1020.3 hPa 0 mm - 0 W/m² -
1788483028 18.33° C 79% 1020.1 hPa 0 mm - 0 W/m² -
1788482424 18.89° C 77% 1020.1 hPa 0 mm - 0 W/m² -
1788481820 18.89° C 77% 1020.2 hPa 0 mm - 0 W/m² -
1788481225 18.89° C 78% 1020.3 hPa 0 mm - 0 W/m² -
1788480620 19.44° C 79% 1020.4 hPa 0 mm - 0 W/m² -
1788480016 19.44° C 80% 1020.3 hPa 0 mm - 0 W/m² -
1788479427 19.44° C 80% 1020.5 hPa 0 mm - 0 W/m² -
1788478823 19.44° C 79% 1020.3 hPa 0 mm - 0 W/m² -
1788478218 19.44° C 79% 1020.2 hPa 0 mm - 0 W/m² -
1788477630 19.44° C 78% 1020.3 hPa 0 mm - 0 W/m² -
1788477024 19.44° C 80% 1020.4 hPa 0 mm - 0 W/m² -
1788476420 19.44° C 80% 1020.4 hPa 0 mm - 0 W/m² -

* Rain latest hour (hover to see other rain measurements)
** Current wind speed in m/s (hover to see current wind gust speed)